| time (UTC) | temp F | wind direction | speed MPH | gust MPH | rain 1hr in | rain 24hr in | rain mn in | humidity % | barometer mb |
| 20260503211544 | 77 | 0.0 | 0.0 | 0.00 | 0.00 | 0.00 | 47 | 1012.4 | |
| 20260503210053 | 78 | 0.0 | 0.0 | 0.00 | 0.00 | 0.00 | 47 | 1012.5 | |
| 20260503204549 | 77 | 0.0 | 0.0 | 0.00 | 0.00 | 0.00 | 46 | 1012.8 | |
| 20260503203047 | 77 | 0.0 | 0.0 | 0.00 | 0.00 | 0.00 | 47 | 1013.0 | |
| 20260503201546 | 76 | 0.0 | 0.0 | 0.00 | 0.00 | 0.00 | 45 | 1013.2 | |
| 20260503200049 | 76 | 0.0 | 0.0 | 0.00 | 0.00 | 0.00 | 46 | 1013.4 | |
| 20260503194546 | 76 | 0.0 | 0.0 | 0.00 | 0.00 | 0.00 | 47 | 1013.5 | |
| 20260503193050 | 75 | 0.0 | 0.0 | 0.00 | 0.00 | 0.00 | 49 | 1013.8 | |
| 20260503191541 | 74 | 0.0 | 0.0 | 0.00 | 0.00 | 0.00 | 52 | 1014.0 | |
| 20260503190048 | 73 | 0.0 | 0.0 | 0.00 | 0.00 | 0.00 | 54 | 1014.2 | |
| 20260503184555 | 72 | 0.0 | 0.0 | 0.00 | 0.00 | 0.00 | 57 | 1014.3 | |
| 20260503183100 | 72 | 0.0 | 0.0 | 0.00 | 0.00 | 0.00 | 56 | 1014.6 | |
| 20260503181551 | 71 | 0.0 | 0.0 | 0.00 | 0.00 | 0.00 | 58 | 1014.6 | |
| 20260503180047 | 70 | 0.0 | 0.0 | 0.00 | 0.00 | 0.00 | 59 | 1014.7 | |
| 20260503174540 | 69 | 0.0 | 0.0 | 0.00 | 0.00 | 0.00 | 60 | 1014.8 | |
| 20260503173111 | 69 | 0.0 | 0.0 | 0.00 | 0.00 | 0.00 | 61 | 1014.9 | |
| 20260503171549 | 68 | 0.0 | 0.0 | 0.00 | 0.00 | 0.00 | 62 | 1015.0 | |
| 20260503081548 | 61 | 0.0 | 0.0 | 0.00 | 0.00 | 0.00 | 67 | 1015.6 | |
| 20260503071550 | 62 | 0.0 | 0.0 | 0.00 | 0.00 | 0.00 | 60 | 1015.4 | |
| 20260503054545 | 65 | 0.0 | 0.0 | 0.00 | 0.00 | 0.00 | 55 | 1015.2 | |
| 20260503053041 | 66 | 0.0 | 0.0 | 0.00 | 0.00 | 0.00 | 53 | 1015.1 | |
| 20260503051543 | 66 | 0.0 | 0.0 | 0.00 | 0.00 | 0.00 | 53 | 1015.2 | |
| 20260503050046 | 66 | 0.0 | 0.0 | 0.00 | 0.00 | 0.00 | 53 | 1015.1 | |
| 20260503044544 | 67 | 0.0 | 0.0 | 0.00 | 0.00 | 0.00 | 53 | 1015.1 | |
| 20260503043044 | 67 | 0.0 | 0.0 | 0.00 | 0.00 | 0.00 | 50 | 1015.0 | |
| 20260503041548 | 68 | 0.0 | 0.0 | 0.00 | 0.00 | 0.00 | 51 | 1014.9 | |
| 20260503040055 | 68 | 0.0 | 0.0 | 0.00 | 0.00 | 0.00 | 52 | 1014.8 | |
| 20260503034602 | 69 | 0.0 | 0.0 | 0.00 | 0.00 | 0.00 | 51 | 1014.4 | |
| 20260503033046 | 68 | 0.0 | 0.0 | 0.00 | 0.00 | 0.00 | 52 | 1014.4 | |
| 20260503031545 | 69 | 0.0 | 0.0 | 0.00 | 0.00 | 0.00 | 57 | 1014.2 | |
| 20260503030052 | 69 | 0.0 | 0.0 | 0.00 | 0.00 | 0.00 | 57 | 1014.0 | |
| 20260503024540 | 70 | 0.0 | 0.0 | 0.00 | 0.00 | 0.00 | 56 | 1013.9 | |
| 20260503023046 | 70 | 0.0 | 0.0 | 0.00 | 0.00 | 0.00 | 58 | 1013.8 | |
| 20260503021546 | 71 | 0.0 | 0.0 | 0.00 | 0.00 | 0.00 | 56 | 1013.8 | |
| 20260503020046 | 71 | 0.0 | 0.0 | 0.00 | 0.00 | 0.00 | 59 | 1013.8 | |
| 20260503014548 | 71 | 0.0 | 0.0 | 0.00 | 0.00 | 0.00 | 59 | 1013.8 | |
| 20260503013049 | 72 | 0.0 | 0.0 | 0.00 | 0.00 | 0.00 | 58 | 1013.8 | |
| 20260503011550 | 72 | 0.0 | 0.0 | 0.00 | 0.00 | 0.00 | 56 | 1013.9 | |
| 20260503010047 | 72 | 0.0 | 0.0 | 0.00 | 0.00 | 0.00 | 56 | 1013.9 | |
| 20260503004545 | 72 | 0.0 | 0.0 | 0.00 | 0.00 | 0.00 | 55 | 1013.9 | |
| 20260503003050 | 73 | 0.0 | 0.0 | 0.00 | 0.00 | 0.00 | 55 | 1013.9 | |
| 20260503001543 | 73 | 0.0 | 0.0 | 0.00 | 0.00 | 0.00 | 55 | 1013.9 | |
| 20260503000043 | 73 | 0.0 | 0.0 | 0.00 | 0.00 | 0.00 | 55 | 1014.0 | |
| 20260502234541 | 73 | 0.0 | 0.0 | 0.00 | 0.00 | 0.00 | 54 | 1014.2 | |
| 20260502233048 | 73 | 0.0 | 0.0 | 0.00 | 0.00 | 0.00 | 54 | 1014.3 | |
| 20260502231552 | 73 | 0.0 | 0.0 | 0.00 | 0.00 | 0.00 | 55 | 1014.5 | |
| 20260502230045 | 73 | 0.0 | 0.0 | 0.00 | 0.00 | 0.00 | 54 | 1014.7 | |
| 20260502224542 | 72 | 0.0 | 0.0 | 0.00 | 0.00 | 0.00 | 55 | 1014.8 | |
| 20260502223043 | 72 | 0.0 | 0.0 | 0.00 | 0.00 | 0.00 | 55 | 1015.1 | |
| 20260502221549 | 72 | 0.0 | 0.0 | 0.00 | 0.00 | 0.00 | 58 | 1015.2 | |
| 20260502220052 | 71 | 0.0 | 0.0 | 0.00 | 0.00 | 0.00 | 60 | 1015.5 | |
| 20260502214545 | 71 | 0.0 | 0.0 | 0.00 | 0.00 | 0.00 | 62 | 1015.7 | |
| 20260502213045 | 71 | 0.0 | 0.0 | 0.00 | 0.00 | 0.00 | 61 | 1015.6 |